This is the latest recevied weather packets stored in our database for station/object WX5HOT. If no packets are shown the sender has not sent any weather packets the latest 10 day(s).
| Time | Temp. | Humidity | Pressure | Rain* | Wind** | Luminosity | Snow |
|---|---|---|---|---|---|---|---|
| 1777753793 | 18.89° C | 38% | 1069.8 hPa | 0 mm | - | 144 W/m² | - |
| 1777753490 | 18.33° C | 40% | 1069.7 hPa | 0 mm | - | 155 W/m² | - |
| 1777753188 | 18.33° C | 38% | 1069.7 hPa | 0 mm | - | 887 W/m² | - |
| 1777752884 | 17.22° C | 39% | 1069.9 hPa | 0 mm | - | 896 W/m² | - |
| 1777752581 | 17.78° C | 40% | 1069.7 hPa | 0 mm | - | 119 W/m² | - |
| 1777752277 | 17.22° C | 42% | 1069.9 hPa | 0 mm | - | 875 W/m² | - |
| 1777751975 | 16.67° C | 42% | 1070 hPa | 0 mm | - | 248 W/m² | - |
| 1777751671 | 16.67° C | 42% | 1069.8 hPa | 0 mm | - | 239 W/m² | - |
| 1777751368 | 16.67° C | 41% | 1069.9 hPa | 0 mm | - | 177 W/m² | - |
| 1777751065 | 17.22° C | 42% | 1070 hPa | 0 mm | - | 150 W/m² | - |
| 1777750761 | 18.33° C | 40% | 1069.8 hPa | 0 mm | - | 148 W/m² | - |
| 1777750458 | 18.89° C | 39% | 1069.8 hPa | 0 mm | - | 149 W/m² | - |
| 1777750153 | 18.89° C | 39% | 1069.9 hPa | 0 mm | - | 936 W/m² | - |
| 1777749851 | 18.33° C | 40% | 1070.1 hPa | 0 mm | - | 959 W/m² | - |
| 1777749548 | 17.78° C | 39% | 1070.1 hPa | 0 mm | - | 888 W/m² | - |
| 1777749245 | 17.78° C | 42% | 1070.1 hPa | 0 mm | - | 962 W/m² | - |
| 1777748943 | 17.78° C | 39% | 1070.2 hPa | 0 mm | - | 177 W/m² | - |
| 1777748640 | 17.22° C | 40% | 1070.3 hPa | 0 mm | - | 970 W/m² | - |
| 1777748336 | 17.78° C | 37% | 1070.1 hPa | 0 mm | - | 961 W/m² | - |
| 1777748031 | 17.78° C | 38% | 1070.2 hPa | 0 mm | - | 591 W/m² | - |
| 1777747729 | 18.33° C | 40% | 1070.4 hPa | 0 mm | - | 989 W/m² | - |
| 1777747424 | 18.33° C | 40% | 1070.4 hPa | 0 mm | - | 719 W/m² | - |
| 1777747121 | 17.22° C | 40% | 1070.3 hPa | 0 mm | - | 476 W/m² | - |
| 1777746817 | 16.67° C | 41% | 1070.5 hPa | 0 mm | - | 285 W/m² | - |
| 1777746512 | 16.67° C | 44% | 1070.4 hPa | 0 mm | - | 229 W/m² | - |
* Rain latest hour (hover to see other rain measurements)
** Current wind speed in m/s (hover to see current wind gust speed)